NOAA 16 DEB, 42364

Orbit data source: Space-Track

NOAA 16 DEB, 42364 is space debris in SSO originally from a launch on Thu, 21 Sep 2000 UTC launched from the Air Force Western Test Range (AFWTR). Debris objects in space refer to the collection of defunct objects orbiting the Earth. Examples of debris include non-operational satellites, rocket bodies, and fragments generated from explosions, collisions, or faulty payload assembly.

Loading next visibility...
Identifier
42364, 2000-055RG
Orbit
SSO
Country
Flag of USUS
Related business
Manufacturer
Unknown
Mission
Spacecraft
Bus & Motor
Unknown
Mass
Unknown
Launch date (UTC)
2000-09-21 (26 years ago)
Launch vehicle
Unknown
Launch site
Air Force Western Test Range (AFWTR)
Object type
Payload
Rocket body
Debris
Shape & HBR
Unknown shape, 0.1 m
Radar Cross Section
Medium (>0.1 m² and <1 m²)

Expand to show TLE details & history
Last TLE update: 3 days ago

TLE from 3 days ago
0 NOAA 16 DEB
1 42364U 00055RG  26170.56021975  .00006926  00000-0  18598-2 0  9996
2 42364  98.7999 287.7909 0035291 295.1390  64.6142 14.48061540529308
Epoch: 2026-06-19T13:26Z
TLE epoch observation values (Epoch: 2026-06-19T13:26:42.986Z)
Latitude
-0.00004°
Longitude
178.32436°
Altitude
724.25 km
Speed
7.499 km/s
True Right ascension
19h 11m 09s
True Declination
0° 00' 00"
Sunlit
Object was in full shadow at epoch
Visualization orbit readout
Latitude
Unknown
Longitude
Unknown
Altitude
Unknown
Speed
Unknown
Apparent Right ascension
Unknown
Apparent Declination
Unknown
Sunlit
N/A
Visualization observer readout
Local Sidereal Time
21:35:39
Azimuth
Unknown
Elevation
Unknown
Doppler factor
Unknown
Orbital elements
Apogee altitude
754.195 km
Perigee altitude
704.03 km
Semi-major axis
7,107.249 km
Eccentricity
0.00353
Inclination
98.7999°
RAAN
287.7909°
Arg. of periapsis
295.139°
True anomaly
64.98025°
Mean anomaly
64.6142°
Eccentric anomaly
64.79715°
Mean motion
3.62235 °/min
Orbital period
99.38 mins
BSTAR
0.0018598
Loading maneuver chart data...
Computing Atmospheric mass density...
Loading historical data...
Loading historical data...
Loading historical data...
Loading historical data...
Loading historical data...
Loading historical data...
Loading historical data...

Documentation

Showing up to 5 results
|